Temperature
13 13 13 12 12 12 12 12 12 12 12 12 12 12 12 11 10 11 10 10 10 9 9 9 9 9 9 9 9 9 9 9 10 10 10 10 10 10 10 10 10 10 10
13 13 13 12 12 12 12 12 12 12 12 12 12 12 12 11 10 10 10 9 9 9 9 8 8 8 8 8 9 9 9 9 9 9 10 10 10 10 10 10 10 10 10
13 13 13 13 12 12 12 12 12 12 12 12 12 11 11 11 10 9 9 9 9 8 8 8 8 8 8 8 8 8 8 8 9 9 9 9 9 9 10 9 9 9 9
13 13 13 13 12 12 12 12 12 12 12 12 11 11 11 10 10 9 8 8 8 8 8 8 8 8 8 8 8 8 8 8 8 8 8 8 8 8 8 8 8 7 7
13 13 13 13 12 12 12 12 12 12 12 11 11 11 10 10 9 8 8 7 7 7 7 7 7 7 7 7 7 7 7 7 7 7 7 7 7 6 6 6 6 6 5
13 13 13 13 12 12 12 12 12 11 11 11 11 11 10 9 9 8 7 7 7 7 7 6 6 7 6 6 6 6 6 6 6 6 6 5 5 5 4 4 4 4 4
13 13 13 13 12 12 12 12 11 11 11 11 10 10 9 8 8 8 7 7 6 6 6 6 6 6 6 6 6 6 6 5 5 4 4 4 3 3 3 3 3 3 2
13 13 13 12 12 12 12 11 11 11 10 10 10 10 8 8 7 7 7 6 6 5 5 5 5 5 5 5 5 5 4 4 4 3 2 1 1 1 2 2 2 2 2
13 13 12 12 12 11 11 11 11 10 10 10 9 9 8 7 7 7 6 6 5 5 5 4 4 4 4 4 4 3 3 3 2 0 -0 -0 -0 -0 0 0 1 1 1
13 12 12 12 11 11 11 11 10 10 9 9 9 8 7 6 6 6 6 5 4 4 3 3 3 3 3 2 2 2 1 0 -1 -1 -2 -2 -1 -1 -1 -1 -0 -0 0
12 12 11 11 11 11 10 10 10 9 9 8 8 7 6 5 4 3 4 4 4 3 3 3 2 2 1 1 0 -0 -1 -2 -2 -3 -3 -3 -2 -2 -2 -1 -1 -1 -1
11 11 11 10 10 10 10 10 9 9 8 8 7 6 6 4 3 2 2 2 2 3 2 2 2 1 0 -0 -1 -2 -2 -3 -3 -4 -3 -3 -3 -3 -3 -3 -3 -2 -2
11 11 10 10 10 9 9 9 9 8 8 7 6 6 5 4 3 2 1 1 1 1 2 1 0 -0 -0 -1 -1 -2 -3 -4 -4 -4 -4 -4 -4 -4 -4 -4 -4 -4 -3
11 10 10 9 9 9 9 8 8 8 7 6 6 5 4 4 3 2 1 -0 -1 -1 -1 -0 -0 -1 -2 -2 -2 -3 -4 -4 -5 -5 -5 -5 -5 -5 -5 -5 -5 -4 -4
11 10 9 9 8 8 8 8 7 7 6 5 5 4 3 3 2 1 0 -1 -2 -4 -3 -2 -3 -3 -3 -4 -4 -4 -5 -5 -6 -6 -6 -6 -5 -5 -5 -5 -5 -5 -5
10 9 9 8 8 8 7 7 6 6 5 4 4 3 3 2 1 1 -0 -1 -3 -4 -5 -4 -4 -5 -5 -5 -5 -6 -6 -6 -6 -6 -6 -6 -6 -6 -6 -6 -6 -5 -5
9 8 8 8 8 7 7 6 6 5 4 4 3 2 2 1 0 -0 -1 -2 -3 -5 -5 -5 -5 -6 -6 -6 -6 -7 -7 -7 -7 -7 -7 -6 -6 -6 -6 -6 -6 -6 -6
8 8 8 7 7 6 6 5 5 4 3 3 2 2 1 0 -0 -1 -3 -4 -5 -5 -6 -7 -7 -7 -7 -7 -7 -7 -7 -7 -7 -7 -7 -7 -7 -7 -7 -6 -6 -6 -6
7 7 7 6 6 5 5 4 4 3 2 2 1 1 -0 -1 -2 -3 -4 -5 -6 -6 -7 -8 -8 -8 -7 -8 -8 -8 -8 -8 -8 -8 -8 -7 -7 -7 -7 -7 -7 -6 -6
7 7 6 6 5 5 4 3 3 2 2 1 1 -0 -1 -2 -3 -4 -5 -6 -7 -7 -8 -8 -8 -8 -8 -8 -8 -8 -8 -8 -8 -8 -8 -8 -8 -7 -7 -7 -7 -7 -7
6 6 5 4 4 4 3 3 2 1 1 1 0 -1 -2 -3 -4 -6 -6 -7 -7 -8 -8 -8 -9 -8 -8 -8 -8 -9 -9 -9 -9 -8 -8 -8 -8 -7 -6 -6 -6 -7 -7
5 5 4 4 3 3 2 2 1 1 0 -0 -1 -2 -3 -4 -5 -6 -7 -7 -8 -8 -8 -8 -9 -9 -9 -9 -9 -9 -9 -9 -9 -8 -9 -8 -8 -7 -7 -7 -7 -7 -7
4 4 3 3 2 2 1 1 0 0 -0 -1 -2 -3 -4 -5 -6 -7 -8 -8 -8 -9 -9 -9 -9 -9 -9 -9 -9 -9 -9 -9 -9 -9 -9 -9 -8 -8 -7 -7 -7 -6 -6
3 3 2 2 1 1 1 0 -0 -1 -1 -2 -3 -5 -6 -7 -7 -8 -8 -8 -9 -9 -9 -9 -9 -9 -9 -9 -9 -9 -9 -9 -9 -8 -9 -9 -8 -8 -7 -6 -6 -6 -6
2 2 1 1 1 0 -0 -1 -1 -2 -3 -3 -5 -6 -7 -7 -8 -8 -8 -9 -9 -9 -9 -9 -9 -9 -9 -9 -9 -9 -9 -10 -10 -9 -8 -9 -8 -9 -8 -6 -5 -5 -6
1 1 1 0 -0 -1 -1 -2 -3 -3 -4 -5 -5 -6 -7 -8 -8 -9 -9 -9 -9 -9 -9 -9 -8 -8 -8 -8 -8 -9 -9 -10 -10 -10 -8 -9 -9 -10 -10 -7 -6 -5 -5
Wind_Speed
5 4 5 7 7 9 6 4 5 5 5 6 6 6 6 6 6 13 13 14 12 11 11 11 11 11 12 12 12 12 12 12 13 13 14 14 14 15 15 15 15 14 14
5 4 4 5 6 7 7 6 6 4 4 4 3 3 4 5 5 11 14 13 12 10 9 9 10 11 12 12 13 13 13 13 14 14 15 15 15 16 16 16 16 16 16
9 6 5 5 6 9 8 7 6 5 3 2 2 2 2 3 4 4 13 13 11 8 7 7 8 10 11 13 13 14 14 14 14 15 15 16 16 17 17 17 17 17 17
14 8 6 5 8 9 7 4 3 3 4 4 4 3 2 1 2 2 7 10 9 7 4 3 6 8 11 13 13 14 14 14 14 15 16 16 17 18 18 18 19 19 19
16 10 6 6 10 6 4 5 5 4 4 3 4 2 1 1 0 2 2 6 6 4 1 2 3 7 10 13 14 14 14 14 14 15 16 17 18 19 19 20 20 20 21
16 12 7 8 9 6 6 6 5 4 4 3 4 2 1 1 0 2 1 3 6 6 4 2 3 6 10 14 15 14 13 14 15 16 17 18 19 20 21 21 22 22 23
15 12 7 7 7 6 6 7 5 5 3 3 3 3 1 2 2 3 2 1 2 5 4 2 2 5 8 12 14 15 15 15 16 18 19 20 21 22 23 24 24 24 25
14 12 10 8 8 7 7 7 5 4 2 4 3 2 3 3 2 2 2 3 2 0 0 2 4 6 8 9 12 14 14 15 18 19 20 22 23 25 25 26 26 26 27
12 12 10 8 9 7 7 7 5 5 3 2 4 3 2 2 4 4 3 2 1 1 2 3 5 7 8 10 11 11 13 17 18 20 23 25 26 27 27 27 27 27 28
11 13 12 10 9 8 8 7 6 4 4 3 2 2 2 2 0 4 4 3 2 3 4 4 6 7 10 11 11 13 15 17 20 23 25 27 29 29 28 28 28 29 29
9 11 12 9 9 8 8 8 6 5 3 3 2 1 0 0 3 3 5 5 5 4 5 5 6 9 11 10 10 11 16 19 23 25 28 30 29 29 29 29 29 30 30
8 9 11 9 8 8 8 7 6 6 4 4 2 1 1 0 1 2 4 4 5 5 6 6 7 8 10 11 11 14 17 21 24 27 30 30 30 30 30 31 31 31 31
10 10 11 10 9 7 7 6 6 6 5 3 1 1 1 0 1 1 3 5 5 5 5 5 4 7 9 6 7 15 19 23 26 29 30 31 31 31 32 32 31 31 31
10 11 11 11 10 9 8 6 6 5 4 3 1 1 0 2 2 2 2 3 6 4 4 6 6 6 7 11 16 22 18 25 29 31 32 32 33 32 32 32 32 32 32
13 13 12 12 10 8 7 6 5 5 4 2 2 1 1 2 1 2 2 2 4 6 6 5 4 5 13 15 19 19 18 25 30 31 32 32 33 33 33 33 33 33 33
14 14 13 12 10 8 7 5 5 5 2 1 2 1 2 2 2 2 2 3 4 7 9 4 6 8 9 16 22 22 21 30 30 31 32 32 33 33 33 34 34 34 34
15 15 13 12 10 8 7 5 4 4 2 1 1 2 3 2 2 3 3 4 5 6 12 10 6 7 9 10 14 18 21 20 22 28 31 32 33 33 33 34 34 34 34
14 13 12 11 9 8 6 5 4 3 1 2 2 3 4 3 3 3 4 5 5 6 9 14 9 7 10 11 11 12 15 20 19 27 30 31 32 33 34 34 34 34 34
14 12 11 10 8 7 6 5 3 2 2 2 3 4 4 4 5 4 5 5 5 8 7 11 12 9 9 11 12 13 14 10 18 23 26 28 30 33 34 34 34 34 33
13 12 11 10 8 7 5 4 3 3 4 4 4 4 4 5 5 5 5 6 7 7 7 9 12 11 11 10 10 11 12 8 11 16 21 26 29 31 32 34 34 34 33
13 12 11 9 7 5 5 5 5 5 5 6 6 5 5 7 10 9 8 6 7 6 7 10 12 13 12 10 10 9 14 12 11 12 12 12 13 14 16 26 29 31 32
12 11 9 8 6 5 6 4 4 4 5 7 7 6 6 7 11 15 17 17 15 12 10 11 13 14 14 12 10 11 14 16 16 6 9 15 12 15 13 10 25 31 32
10 9 7 6 6 7 5 3 5 5 6 7 7 6 6 7 11 6 12 16 15 20 22 16 16 15 15 12 11 14 15 17 18 12 13 18 13 15 14 17 29 32 33
8 7 6 5 4 5 4 2 6 6 6 7 7 6 6 7 8 11 8 7 8 11 17 14 12 13 13 11 13 16 16 15 14 11 10 16 16 16 16 13 26 31 31
7 6 5 4 2 3 4 2 6 4 6 7 7 7 8 7 15 18 11 9 11 11 18 22 24 24 28 28 22 13 11 13 17 14 7 8 12 15 15 15 17 23 24
6 5 3 2 1 1 1 3 6 3 5 6 6 7 13 15 18 19 12 11 14 12 12 13 15 19 16 17 22 12 9 13 15 11 4 4 8 9 9 7 7 9 16
Wind_Direction
166 156 143 144 135 134 133 108 88 82 68 53 41 33 20 21 69 104 93 86 82 77 69 60 49 37 26 16 8 0 354 349 345 342 339 336 334 331 328 324 322 320 319
166 137 125 118 112 110 107 100 87 80 70 59 32 30 21 17 48 113 118 103 95 85 71 56 40 27 15 6 357 350 345 341 337 334 330 327 326 324 321 317 314 312 311
150 130 123 119 118 116 102 87 79 71 64 26 3 66 55 30 15 110 133 128 120 107 85 55 30 14 4 356 350 344 340 337 334 330 327 324 321 318 315 312 309 307 306
145 133 126 126 124 113 102 91 84 78 65 31 2 5 15 86 324 78 121 131 128 119 107 56 18 1 352 347 342 339 337 335 333 329 326 323 320 317 313 309 306 303 301
143 134 128 127 123 111 103 99 66 66 60 21 322 300 23 31 252 101 110 126 120 110 68 293 344 344 340 338 335 333 333 333 330 327 325 322 319 316 312 308 304 301 298
139 131 129 128 122 114 112 109 105 77 57 354 313 304 176 119 179 162 166 143 162 185 221 288 343 349 340 332 330 328 327 327 327 325 323 321 317 314 311 307 303 300 296
136 135 133 128 126 127 132 128 120 101 50 356 355 339 284 208 207 175 167 157 213 206 206 252 341 353 338 326 324 320 321 323 324 323 320 318 316 314 310 306 302 299 296
134 138 135 135 129 125 115 112 111 111 77 35 41 9 360 336 307 228 175 201 232 235 267 317 337 326 315 312 310 312 316 318 319 317 316 316 314 311 307 303 300 297 294
130 134 132 129 127 125 125 120 121 125 135 78 59 78 82 320 323 318 272 226 216 271 279 288 295 291 296 302 298 298 304 310 312 313 313 313 311 307 303 301 298 297 295
132 134 132 131 127 125 124 122 114 112 119 130 107 74 109 118 42 315 319 321 333 314 298 293 293 288 289 289 288 293 299 304 308 310 310 310 307 304 302 300 299 297 296
135 136 132 129 128 129 125 120 118 107 100 113 115 108 96 147 206 222 280 301 319 315 320 306 291 282 278 277 278 283 294 303 306 306 307 306 304 303 302 301 301 299 298
139 134 129 126 122 123 121 122 120 111 100 95 85 87 114 192 284 264 278 300 299 293 302 287 279 272 269 269 274 290 301 304 303 303 303 302 302 302 303 303 301 298 296
148 143 135 129 125 123 122 124 123 123 118 117 119 73 37 318 285 278 281 290 295 298 286 279 289 306 302 310 313 310 306 304 304 303 302 301 302 302 302 300 298 296 294
147 141 134 130 129 129 131 126 123 129 126 143 177 149 232 288 290 272 270 299 305 290 282 295 312 304 331 332 318 313 311 306 304 302 301 301 302 301 300 298 297 295 294
143 138 133 132 133 131 131 136 136 138 142 168 174 143 244 262 267 268 272 262 267 289 292 277 290 330 329 317 312 311 306 305 303 302 302 302 300 299 299 298 296 295 293
141 136 132 132 130 126 125 122 119 117 116 171 148 179 273 274 288 287 279 273 262 275 286 280 298 300 309 311 308 308 304 303 302 301 299 299 299 298 298 297 296 294 293
138 135 133 131 129 128 128 128 133 134 154 274 267 246 264 277 281 285 291 285 276 274 285 290 286 297 302 299 299 296 297 294 292 297 299 298 298 298 298 297 296 294 292
132 129 128 125 124 121 119 122 124 131 202 268 289 292 288 292 291 286 280 276 279 279 287 297 300 299 295 294 294 293 300 298 296 298 300 300 301 301 299 297 296 294 293
124 120 117 114 111 107 98 86 73 40 336 293 278 271 273 282 284 280 283 286 287 293 289 298 302 299 296 296 296 294 292 291 296 301 302 301 300 299 298 299 299 298 296
117 112 108 106 106 103 95 73 41 358 325 308 295 279 268 263 264 270 281 276 281 284 288 293 297 298 295 291 291 298 301 290 295 301 298 296 296 298 298 298 297 296 295
109 106 105 103 101 107 88 59 22 352 338 322 308 294 284 288 290 290 288 278 287 287 290 294 296 297 297 300 300 300 303 303 294 289 288 290 293 290 292 292 294 293 292
105 105 108 109 109 106 92 55 359 338 327 315 304 300 301 298 298 303 306 305 303 303 303 297 297 297 298 296 297 299 301 302 300 278 291 297 293 290 289 285 291 294 296
107 108 111 118 121 123 110 40 342 334 309 295 292 293 297 299 308 297 295 300 301 302 301 298 296 295 295 294 293 295 293 292 293 295 299 296 294 291 290 291 295 296 296
113 114 114 107 104 140 131 36 343 339 309 298 294 292 291 289 293 299 289 296 289 295 294 294 288 287 292 291 286 291 292 292 289 284 278 289 294 294 294 290 293 292 293
109 109 110 105 87 123 139 22 347 330 308 307 313 320 319 304 306 312 316 306 299 295 301 299 299 299 300 301 302 302 299 299 298 296 283 276 288 298 296 290 286 289 293
107 108 104 97 88 126 178 337 335 318 311 311 311 312 315 313 313 317 315 305 304 301 297 299 300 299 296 295 301 298 296 297 297 298 277 276 292 309 302 271 269 287 293
Height
1520 1522 1524 1526 1527 1527 1528 1529 1529 1529 1529 1529 1528 1528 1527 1526 1525 1523 1523 1522 1522 1522 1522 1521 1521 1521 1520 1519 1518 1517 1516 1515 1514 1513 1512 1512 1511 1510 1510 1510 1510 1510 1510
1519 1521 1523 1524 1525 1526 1527 1527 1528 1528 1527 1527 1526 1525 1524 1524 1523 1521 1520 1520 1520 1519 1519 1519 1519 1518 1518 1517 1515 1514 1513 1512 1510 1509 1508 1507 1506 1505 1505 1504 1504 1503 1503
1517 1519 1521 1522 1523 1524 1525 1526 1526 1526 1525 1525 1524 1523 1522 1521 1521 1520 1517 1517 1517 1517 1517 1517 1516 1516 1515 1514 1512 1511 1509 1508 1506 1505 1503 1502 1501 1500 1499 1498 1498 1497 1497
1514 1516 1518 1520 1521 1522 1523 1524 1524 1524 1523 1523 1522 1521 1519 1518 1518 1517 1516 1515 1515 1514 1514 1514 1514 1513 1512 1510 1509 1507 1505 1503 1502 1500 1499 1497 1496 1495 1493 1493 1492 1491 1490
1510 1513 1515 1517 1519 1520 1521 1522 1521 1521 1521 1521 1520 1518 1517 1516 1515 1515 1515 1514 1513 1513 1512 1511 1510 1509 1508 1506 1505 1503 1501 1499 1497 1496 1494 1492 1491 1489 1488 1487 1485 1484 1483
1506 1509 1512 1514 1516 1517 1518 1519 1519 1519 1519 1519 1518 1516 1515 1514 1513 1513 1513 1512 1511 1510 1509 1508 1507 1506 1504 1503 1501 1499 1497 1495 1493 1491 1489 1487 1485 1483 1482 1480 1479 1478 1477
1502 1505 1508 1510 1513 1515 1516 1516 1517 1517 1517 1517 1516 1514 1513 1512 1511 1511 1510 1510 1509 1508 1507 1506 1504 1503 1501 1499 1497 1494 1492 1490 1488 1486 1484 1482 1480 1477 1475 1474 1472 1471 1470
1497 1501 1504 1507 1509 1511 1512 1513 1514 1515 1515 1514 1513 1512 1511 1512 1509 1509 1508 1508 1507 1506 1504 1503 1501 1499 1497 1494 1491 1489 1486 1484 1482 1480 1478 1475 1473 1471 1468 1467 1465 1463 1462
1493 1496 1500 1503 1505 1507 1509 1510 1511 1512 1512 1512 1511 1511 1510 1509 1508 1507 1506 1505 1504 1503 1501 1499 1497 1494 1492 1489 1486 1483 1481 1478 1476 1473 1471 1469 1466 1463 1461 1459 1457 1456 1454
1488 1492 1496 1499 1501 1504 1506 1507 1508 1509 1509 1509 1508 1508 1508 1507 1507 1504 1503 1502 1500 1499 1497 1494 1492 1489 1487 1484 1481 1478 1476 1473 1470 1468 1465 1462 1459 1456 1454 1452 1449 1447 1445
1484 1488 1491 1495 1498 1500 1502 1504 1505 1506 1506 1506 1505 1504 1504 1503 1503 1501 1498 1496 1495 1494 1492 1489 1487 1483 1481 1478 1475 1472 1470 1467 1464 1461 1458 1454 1452 1449 1446 1443 1441 1438 1435
1478 1483 1487 1491 1494 1497 1499 1501 1502 1503 1503 1503 1502 1501 1501 1500 1500 1498 1495 1491 1488 1486 1485 1483 1480 1477 1475 1472 1469 1467 1464 1461 1458 1454 1451 1447 1444 1441 1438 1434 1431 1429 1426
1473 1477 1482 1486 1490 1494 1496 1498 1499 1500 1500 1499 1499 1498 1497 1496 1496 1494 1491 1487 1483 1479 1477 1476 1475 1473 1471 1468 1464 1461 1458 1454 1450 1446 1443 1439 1436 1432 1429 1425 1422 1419 1416
1468 1473 1478 1483 1487 1490 1493 1495 1496 1496 1496 1496 1495 1494 1494 1493 1491 1489 1487 1484 1478 1473 1471 1469 1468 1467 1465 1462 1458 1454 1450 1446 1442 1438 1434 1431 1427 1423 1419 1416 1412 1409 1406
1465 1470 1475 1480 1484 1488 1490 1491 1492 1492 1492 1492 1491 1490 1489 1488 1486 1484 1482 1480 1477 1469 1463 1461 1461 1460 1458 1454 1450 1446 1441 1437 1434 1430 1426 1422 1418 1414 1410 1406 1403 1399 1396
1462 1467 1473 1478 1482 1485 1487 1488 1489 1489 1488 1488 1487 1486 1485 1483 1481 1479 1477 1475 1472 1468 1461 1455 1455 1453 1450 1446 1443 1438 1433 1429 1426 1422 1418 1414 1410 1406 1401 1397 1393 1389 1386
1460 1465 1471 1476 1480 1482 1484 1485 1485 1485 1485 1484 1482 1481 1480 1478 1476 1474 1472 1469 1467 1463 1456 1449 1449 1446 1442 1438 1433 1430 1426 1421 1417 1414 1410 1406 1402 1397 1393 1388 1384 1380 1376
1459 1464 1470 1474 1477 1480 1481 1482 1482 1481 1481 1480 1478 1477 1475 1473 1471 1468 1466 1463 1460 1457 1452 1444 1440 1438 1434 1430 1426 1422 1418 1414 1410 1406 1402 1397 1393 1388 1383 1379 1374 1370 1366
1458 1464 1468 1472 1475 1477 1478 1479 1479 1478 1477 1476 1474 1472 1470 1468 1465 1463 1460 1457 1454 1451 1447 1441 1434 1430 1427 1423 1419 1414 1410 1406 1402 1397 1393 1388 1383 1378 1373 1369 1364 1360 1355
1458 1463 1467 1471 1473 1475 1476 1476 1475 1475 1473 1472 1470 1468 1466 1463 1460 1457 1454 1451 1448 1444 1440 1435 1429 1424 1420 1417 1413 1408 1401 1397 1392 1388 1383 1378 1374 1368 1363 1358 1353 1348 1344
1458 1463 1466 1469 1471 1472 1473 1472 1472 1471 1469 1467 1466 1463 1461 1458 1455 1453 1450 1447 1443 1439 1435 1430 1424 1419 1414 1411 1407 1402 1395 1388 1382 1379 1373 1368 1363 1357 1352 1347 1342 1338 1334
1459 1463 1466 1467 1468 1469 1469 1469 1468 1467 1465 1463 1460 1458 1455 1453 1450 1447 1445 1442 1439 1435 1430 1425 1419 1414 1409 1406 1401 1396 1390 1382 1373 1371 1366 1358 1355 1347 1343 1338 1333 1329 1325
1459 1462 1464 1465 1466 1466 1466 1465 1464 1462 1460 1458 1455 1452 1450 1447 1445 1441 1438 1435 1432 1429 1426 1422 1414 1409 1404 1400 1395 1389 1384 1377 1369 1364 1360 1349 1344 1338 1334 1329 1325 1320 1315
1458 1460 1462 1463 1463 1463 1463 1461 1459 1457 1455 1453 1450 1447 1445 1442 1439 1436 1432 1428 1425 1422 1418 1414 1409 1403 1399 1394 1389 1384 1378 1370 1362 1357 1354 1344 1336 1329 1323 1318 1314 1310 1306
1457 1459 1460 1461 1461 1460 1459 1457 1455 1452 1450 1447 1445 1443 1440 1436 1433 1431 1427 1422 1417 1413 1410 1406 1402 1397 1392 1387 1383 1378 1371 1364 1355 1348 1346 1339 1329 1321 1311 1306 1303 1300 1296
1457 1458 1458 1459 1458 1457 1455 1453 1450 1447 1444 1442 1439 1437 1434 1431 1428 1425 1421 1416 1410 1406 1402 1397 1393 1389 1384 1380 1376 1372 1365 1358 1350 1341 1336 1332 1323 1317 1302 1293 1292 1290 1286